星链-11698 (STARLINK-11698)

导读

STARLINK-11698是美国于2025年6月10日发射的星链卫星,隶属于SpaceX公司打造的星链星座。星链系统旨在为全球提供高速低延迟互联网覆盖,该卫星入轨后将和其他已发射卫星组网,进一步拓展星链全球服务范围,提升星座服务能力,支撑星链在通信、导航等多领域应用布局。

基本信息
目录编号:
64325
目录名称:
STARLINK-11698
国际标识:
2025-124J
轨道中心:
EARTH
卫星名称:
星链-11698
卫星全名:
星链-11698 (STARLINK-11698)
卫星状态:
在轨 (已飞行458 天)
发射日期:
2025-06-10 UTC
国别 :
美国 (US)
星等 :
--
该卫星已列入 空间交会检测服务 Space Conjunction Data Service (SCDS) ,当前飞行风险评估等级: 无高风险
轨道信息
数据来源 国际轨道数据
星历时间: 2026-09-11T14:34:49+0800
9小时前
查看轨道信息
半长轴: 6734.314km
偏心率: 0.0003825
轨道倾角: 43.000°
近地点辐角 285.499°
升交点赤经 350.427°
平近点角 74.545°
近地点: 353.601km
远地点: 358.753km
周期: 91.664分钟
每日圈数: 15.709513
详细信息
固有亮度:
5
最大亮度:
2.5
卫星平台:
Starlink V1.0
覆盖范围:
全球
运营商:
太空探索技术公司
运营商所在国:
美国
制造商(研发单位):
太空探索技术公司
制造商所在国:
美国
使用方式:
暂无
卫星简介
Starlink 计划是 SpaceX 推出的全球卫星互联网项目,通过发射低轨道卫星,为全球尤其是偏远地区提供高速、低延迟的互联网服务。自 2019 年起,Starlink 已部署数千颗卫星,旨在缩小全球数字鸿沟,推动互联网普及。该项目还为军事、航空等行业提供通信支持,带来广泛经济效益。
2D轨道图
3D轨道图
轨道高度分析图
轨道倾角分析图
轨道综合分析图
查看轨道综合分析图
交会数据列表
事件ID 空间交会对象 最接近时刻(TCA) 交会距离 交会风险概率(CRP) 交会风险指数(CRI) 操作
CDM_260913-092606-327306-432521
2026-09-13T
09:26:16+0000
1.790 km
极远距离
2.381863E-6 低风险 0.43
CDM_260913-053706-327306-432521
2026-09-13T
05:37:31+0000
1.954 km
极远距离
1.890023E-6 低风险 0.41
CDM_260913-103005-840106-432521
2026-09-13T
10:30:18+0000
2.390 km
极远距离
1.883511E-6 低风险 0.4
CDM_260913-120105-840106-432522
2026-09-13T
12:01:59+0000
2.581 km
极远距离
1.637288E-6 低风险 0.39
与全量物体交会距离演化趋势
与全量物体交会风险概率演化趋势